Location: Le Gr�zie
(43.6000°N, 13.5000°E)
Time: 01:47:15
(UTC+00:00)

Spot 2 Rocket - Pass Details

Date: 09 April 2020
Orbit: 757 x 773 km, 98.6° (Epoch: 29 May)

Event Time Altitude Azimuth Distance (km) Brightness Sun altitude
Exits shadow 20:22:16 64° 215° (SW) 857 3.6 -26.3°
Maximum altitude 20:22:50 70° 258° (WSW) 822 3.6 -26.4°
Drops below altitude 10° 20:27:57 10° 342° (NNW) 2,322 6.8 -27.0°
Sets 20:30:17 0° 345° (NNW) 3,251 7.7 -27.3°
